This is the latest recevied weather packets stored in our database for station/object KB1WCR. If no packets are shown the sender has not sent any weather packets the latest 10 day(s).
| Time | Temp. | Humidity | Pressure | Rain* | Wind** | Luminosity | Snow |
|---|---|---|---|---|---|---|---|
| 1787775373 | 25° C | 69% | 1016.8 hPa | 0 mm | - | 116 W/m² | - |
| 1787775067 | 25° C | 67% | 1016.6 hPa | 0 mm | - | 112 W/m² | - |
| 1787774766 | 26.11° C | 66% | 1016.8 hPa | 0 mm | - | 108 W/m² | - |
| 1787774460 | 26.11° C | 66% | 1016.7 hPa | 0 mm | - | 388 W/m² | - |
| 1787774155 | 26.11° C | 66% | 1016.5 hPa | 0 mm | - | 193 W/m² | - |
| 1787773853 | 26.11° C | 65% | 1016.8 hPa | 0 mm | - | 411 W/m² | - |
| 1787773552 | 25° C | 69% | 1016.8 hPa | 0 mm | - | 367 W/m² | - |
| 1787773249 | 25° C | 69% | 1016.7 hPa | 0 mm | - | 132 W/m² | - |
| 1787772944 | 25° C | 67% | 1016.8 hPa | 0 mm | - | 117 W/m² | - |
| 1787772639 | 25° C | 66% | 1016.6 hPa | 0 mm | - | 112 W/m² | - |
| 1787772338 | 25° C | 67% | 1016.6 hPa | 0 mm | - | 104 W/m² | - |
| 1787772037 | 25.56° C | 64% | 1016.7 hPa | 0 mm | - | 84 W/m² | - |
| 1787771732 | 26.11° C | 65% | 1016.7 hPa | 0 mm | - | 80 W/m² | - |
| 1787771430 | 26.67° C | 64% | 1016.7 hPa | 0 mm | - | 92 W/m² | - |
| 1787771130 | 26.11° C | 65% | 1016.8 hPa | 0 mm | - | 584 W/m² | - |
| 1787770826 | 25° C | 66% | 1016.9 hPa | 0 mm | - | 163 W/m² | - |
| 1787770524 | 25.56° C | 65% | 1016.7 hPa | 0 mm | - | 122 W/m² | - |
| 1787770218 | 26.11° C | 65% | 1017 hPa | 0 mm | - | 126 W/m² | - |
| 1787769917 | 27.78° C | 60% | 1016.8 hPa | 0 mm | - | 137 W/m² | - |
| 1787769612 | 27.78° C | 59% | 1016.9 hPa | 0 mm | - | 641 W/m² | - |
| 1787769310 | 27.22° C | 60% | 1016.9 hPa | 0 mm | - | 215 W/m² | - |
| 1787769005 | 27.78° C | 56% | 1016.9 hPa | 0 mm | - | 262 W/m² | - |
| 1787768701 | 26.67° C | 55% | 1016.6 hPa | 0 mm | - | 204 W/m² | - |
| 1787768397 | 27.22° C | 54% | 1016.7 hPa | 0 mm | - | 161 W/m² | - |
| 1787768093 | 27.22° C | 55% | 1016.8 hPa | 0 mm | - | 699 W/m² | - |
* Rain latest hour (hover to see other rain measurements)
** Current wind speed in m/s (hover to see current wind gust speed)